| time (UTC) | temp F | wind direction | speed knots | gust knots | rain 1hr in | rain 24hr in | rain mn in | humidity % | barometer mb |
| 20260906193504 | 82 | 56 | 2.6 | 4.3 | 0.00 | 0.02 | 0.02 | 69 | 1015.6 |
| 20260906193004 | 82 | 53 | 1.7 | 4.3 | 0.00 | 0.02 | 0.02 | 71 | 1015.7 |
| 20260906192504 | 82 | 37 | 1.7 | 4.3 | 0.00 | 0.02 | 0.02 | 74 | 1015.7 |
| 20260906192004 | 81 | 63 | 1.7 | 5.2 | 0.00 | 0.02 | 0.02 | 73 | 1015.8 |
| 20260906191504 | 80 | 33 | 3.5 | 7.8 | 0.00 | 0.02 | 0.02 | 73 | 1015.7 |
| 20260906191004 | 80 | 74 | 2.6 | 5.2 | 0.00 | 0.02 | 0.02 | 74 | 1015.7 |
| 20260906190504 | 80 | 30 | 0.9 | 5.2 | 0.00 | 0.02 | 0.02 | 72 | 1016.0 |
| 20260906190004 | 80 | 34 | 2.6 | 7.0 | 0.00 | 0.02 | 0.02 | 76 | 1016.0 |
| 20260906185504 | 79 | 3 | 1.7 | 2.6 | 0.00 | 0.02 | 0.02 | 75 | 1016.2 |
| 20260906185004 | 78 | 6 | 1.7 | 6.1 | 0.00 | 0.02 | 0.02 | 76 | 1016.3 |
| 20260906184504 | 78 | 42 | 1.7 | 2.6 | 0.00 | 0.02 | 0.02 | 77 | 1016.5 |
| 20260906184004 | 78 | 18 | 1.7 | 2.6 | 0.00 | 0.02 | 0.02 | 75 | 1016.7 |
| 20260906183504 | 78 | 30 | 0.9 | 2.6 | 0.00 | 0.02 | 0.02 | 76 | 1016.8 |
| 20260906183004 | 78 | 25 | 0.9 | 1.7 | 0.00 | 0.02 | 0.02 | 77 | 1016.7 |
| 20260906182504 | 78 | 49 | 1.7 | 5.2 | 0.00 | 0.02 | 0.02 | 76 | 1016.7 |
| 20260906182005 | 78 | 338 | 2.6 | 5.2 | 0.00 | 0.02 | 0.02 | 76 | 1016.9 |
| 20260906181504 | 78 | 355 | 1.7 | 5.2 | 0.00 | 0.02 | 0.02 | 78 | 1016.8 |
| 20260906181004 | 77 | 292 | 2.6 | 7.0 | 0.00 | 0.02 | 0.02 | 77 | 1017.2 |
| 20260906180504 | 77 | 349 | 1.7 | 7.8 | 0.00 | 0.02 | 0.02 | 77 | 1017.2 |
| 20260906180004 | 77 | 318 | 2.6 | 7.0 | 0.00 | 0.02 | 0.02 | 76 | 1016.9 |
| 20260906175504 | 77 | 321 | 4.3 | 8.7 | 0.00 | 0.02 | 0.02 | 79 | 1016.7 |
| 20260906175004 | 77 | 296 | 2.6 | 8.7 | 0.00 | 0.02 | 0.02 | 79 | 1016.9 |
| 20260906174504 | 77 | 276 | 3.5 | 7.0 | 0.00 | 0.02 | 0.02 | 78 | 1017.0 |
| 20260906174004 | 77 | 328 | 1.7 | 4.3 | 0.00 | 0.02 | 0.02 | 81 | 1016.8 |
| 20260906173504 | 77 | 0 | 1.7 | 2.6 | 0.00 | 0.02 | 0.02 | 82 | 1017.0 |
| 20260906173004 | 77 | 298 | 1.7 | 2.6 | 0.00 | 0.02 | 0.02 | 82 | 1017.1 |
| 20260906172504 | 76 | 357 | 0.9 | 2.6 | 0.00 | 0.02 | 0.02 | 84 | 1017.0 |
| 20260906172004 | 76 | 311 | 0.9 | 2.6 | 0.00 | 0.02 | 0.02 | 85 | 1016.9 |
| 20260906171504 | 76 | 302 | 0.9 | 1.7 | 0.00 | 0.02 | 0.02 | 85 | 1017.0 |
| 20260906171004 | 75 | 327 | 0.0 | 1.7 | 0.00 | 0.02 | 0.02 | 86 | 1017.0 |
| 20260906170504 | 75 | 223 | 0.9 | 2.6 | 0.00 | 0.02 | 0.02 | 86 | 1016.9 |
| 20260906170004 | 75 | 239 | 0.9 | 2.6 | 0.00 | 0.02 | 0.02 | 86 | 1017.0 |
| 20260906165505 | 75 | 202 | 0.0 | 1.7 | 0.00 | 0.02 | 0.02 | 86 | 1016.7 |
| 20260906165004 | 75 | 240 | 0.0 | 2.6 | 0.00 | 0.02 | 0.02 | 86 | 1016.7 |
| 20260906164504 | 75 | 197 | 1.7 | 6.1 | 0.00 | 0.02 | 0.02 | 86 | 1016.8 |
| 20260906164004 | 75 | 206 | 0.9 | 2.6 | 0.00 | 0.02 | 0.02 | 86 | 1016.4 |
| 20260906163505 | 75 | 52 | 0.9 | 2.6 | 0.00 | 0.02 | 0.02 | 87 | 1016.4 |
| 20260906163004 | 75 | 195 | 1.7 | 2.6 | 0.00 | 0.02 | 0.02 | 86 | 1016.4 |
| 20260906162504 | 74 | 296 | 0.0 | 1.7 | 0.00 | 0.02 | 0.02 | 86 | 1016.1 |
| 20260906162004 | 74 | 223 | 0.0 | 1.7 | 0.00 | 0.02 | 0.02 | 87 | 1016.1 |
| 20260906161504 | 74 | 302 | 0.0 | 1.7 | 0.00 | 0.02 | 0.02 | 88 | 1015.9 |
| 20260906161005 | 74 | 215 | 0.9 | 1.7 | 0.00 | 0.02 | 0.02 | 88 | 1016.0 |
| 20260906160504 | 74 | 353 | 0.0 | 1.7 | 0.00 | 0.02 | 0.02 | 88 | 1015.7 |
| 20260906160004 | 74 | 354 | 0.0 | 1.7 | 0.00 | 0.02 | 0.02 | 88 | 1015.8 |
| 20260906155504 | 74 | 233 | 0.0 | 0.0 | 0.00 | 0.02 | 0.02 | 89 | 1016.2 |
| 20260906155005 | 74 | 220 | 0.0 | 1.7 | 0.00 | 0.02 | 0.02 | 89 | 1016.2 |
| 20260906154504 | 74 | 237 | 1.7 | 2.6 | 0.00 | 0.02 | 0.02 | 90 | 1016.1 |
| 20260906154004 | 73 | 263 | 0.9 | 2.6 | 0.00 | 0.02 | 0.02 | 89 | 1015.4 |
| 20260906153504 | 73 | 50 | 0.9 | 2.6 | 0.01 | 0.02 | 0.02 | 90 | 1015.3 |
| 20260906153004 | 73 | 96 | 1.7 | 2.6 | 0.01 | 0.02 | 0.02 | 90 | 1015.3 |
| 20260906152504 | 73 | 317 | 0.0 | 1.7 | 0.01 | 0.02 | 0.02 | 90 | 1015.4 |
| 20260906152005 | 73 | 277 | 0.9 | 1.7 | 0.01 | 0.02 | 0.02 | 90 | 1015.5 |
| 20260906151504 | 73 | 288 | 0.9 | 2.6 | 0.01 | 0.02 | 0.02 | 90 | 1015.2 |
| 20260906151004 | 73 | 29 | 1.7 | 2.6 | 0.01 | 0.02 | 0.02 | 90 | 1015.4 |
| 20260906150505 | 73 | 303 | 0.0 | 0.9 | 0.01 | 0.02 | 0.02 | 89 | 1015.7 |
| 20260906150004 | 73 | 0 | 0.0 | 0.0 | 0.01 | 0.02 | 0.02 | 89 | 1016.1 |
| 20260906145504 | 73 | 0 | 0.0 | 0.0 | 0.01 | 0.02 | 0.02 | 89 | 1016.4 |
| 20260906145004 | 73 | 0 | 0.0 | 0.0 | 0.01 | 0.02 | 0.02 | 89 | 1016.3 |
| 20260906144504 | 73 | 3 | 0.0 | 1.7 | 0.01 | 0.02 | 0.02 | 89 | 1016.1 |
| 20260906144004 | 73 | 247 | 0.0 | 0.9 | 0.01 | 0.02 | 0.02 | 89 | 1016.3 |
| 20260906143504 | 73 | 241 | 0.0 | 1.7 | 0.00 | 0.01 | 0.01 | 89 | 1016.5 |
| 20260906143005 | 73 | 251 | 0.0 | 2.6 | 0.00 | 0.01 | 0.01 | 89 | 1016.7 |
| 20260906142504 | 73 | 204 | 1.7 | 2.6 | 0.00 | 0.01 | 0.01 | 89 | 1017.0 |
| 20260906142004 | 73 | 213 | 0.9 | 2.6 | 0.00 | 0.01 | 0.01 | 89 | 1016.7 |
| 20260906141504 | 74 | 227 | 0.0 | 1.7 | 0.00 | 0.01 | 0.01 | 88 | 1016.7 |
| 20260906141004 | 73 | 246 | 0.0 | 0.0 | 0.01 | 0.01 | 0.01 | 88 | 1016.6 |
| 20260906140504 | 73 | 224 | 0.0 | 0.0 | 0.01 | 0.01 | 0.01 | 88 | 1016.5 |
| 20260906140004 | 73 | 225 | 0.0 | 0.0 | 0.01 | 0.01 | 0.01 | 88 | 1016.4 |
| 20260906135504 | 73 | 304 | 0.0 | 0.0 | 0.01 | 0.01 | 0.01 | 88 | 1016.2 |
| 20260906135004 | 73 | 311 | 0.0 | 0.0 | 0.01 | 0.01 | 0.01 | 88 | 1016.1 |
| 20260906134504 | 74 | 255 | 0.0 | 2.6 | 0.01 | 0.01 | 0.01 | 88 | 1016.2 |
| 20260906134004 | 74 | 229 | 1.7 | 2.6 | 0.01 | 0.01 | 0.01 | 88 | 1016.2 |
| 20260906133505 | 74 | 224 | 0.9 | 2.6 | 0.01 | 0.01 | 0.01 | 88 | 1016.3 |
| 20260906133004 | 74 | 233 | 0.0 | 0.9 | 0.01 | 0.01 | 0.01 | 88 | 1016.4 |
| 20260906132504 | 74 | 213 | 0.0 | 1.7 | 0.01 | 0.01 | 0.01 | 88 | 1016.4 |
| 20260906132004 | 74 | 256 | 0.9 | 1.7 | 0.01 | 0.01 | 0.01 | 88 | 1016.1 |
| 20260906131504 | 74 | 193 | 0.9 | 1.7 | 0.01 | 0.01 | 0.01 | 87 | 1016.2 |
| 20260906131004 | 74 | 129 | 0.0 | 0.9 | 0.00 | 0.00 | 0.00 | 87 | 1016.0 |
| 20260906130504 | 74 | 181 | 0.9 | 1.7 | 0.00 | 0.00 | 0.00 | 86 | 1016.1 |
| 20260906130004 | 74 | 173 | 0.9 | 2.6 | 0.00 | 0.00 | 0.00 | 86 | 1015.6 |
| 20260906125504 | 75 | 188 | 0.9 | 2.6 | 0.00 | 0.00 | 0.00 | 85 | 1015.5 |
| 20260906125004 | 75 | 195 | 2.6 | 5.2 | 0.00 | 0.00 | 0.00 | 84 | 1015.7 |
| 20260906124504 | 75 | 233 | 2.6 | 10.4 | 0.00 | 0.00 | 0.00 | 84 | 1015.7 |
| 20260906124004 | 75 | 227 | 2.6 | 5.2 | 0.00 | 0.00 | 0.00 | 84 | 1015.7 |
| 20260906123504 | 75 | 216 | 3.5 | 7.0 | 0.00 | 0.00 | 0.00 | 84 | 1015.7 |
| 20260906123004 | 75 | 234 | 0.9 | 2.6 | 0.00 | 0.00 | 0.00 | 84 | 1015.4 |
| 20260906122504 | 75 | 226 | 1.7 | 4.3 | 0.00 | 0.00 | 0.00 | 84 | 1015.2 |
| 20260906122004 | 75 | 86 | 0.0 | 2.6 | 0.00 | 0.00 | 0.00 | 84 | 1014.7 |
| 20260906121504 | 75 | 89 | 0.9 | 1.7 | 0.00 | 0.00 | 0.00 | 84 | 1014.5 |
| 20260906121004 | 75 | 121 | 0.9 | 2.6 | 0.00 | 0.00 | 0.00 | 83 | 1014.5 |
| 20260906120504 | 75 | 94 | 0.9 | 2.6 | 0.00 | 0.00 | 0.00 | 83 | 1014.5 |
| 20260906120004 | 75 | 94 | 0.9 | 2.6 | 0.00 | 0.00 | 0.00 | 83 | 1014.5 |
| 20260906115504 | 75 | 107 | 0.9 | 2.6 | 0.00 | 0.00 | 0.00 | 84 | 1014.4 |
| 20260906115004 | 75 | 87 | 0.9 | 2.6 | 0.00 | 0.00 | 0.00 | 84 | 1014.4 |
| 20260906114504 | 75 | 102 | 0.9 | 2.6 | 0.00 | 0.00 | 0.00 | 84 | 1014.3 |
| 20260906114004 | 75 | 104 | 1.7 | 2.6 | 0.00 | 0.00 | 0.00 | 84 | 1014.4 |
| 20260906113504 | 75 | 104 | 1.7 | 2.6 | 0.00 | 0.00 | 0.00 | 84 | 1014.5 |
| 20260906113004 | 75 | 81 | 0.9 | 2.6 | 0.00 | 0.00 | 0.00 | 84 | 1014.4 |
| 20260906112503 | 75 | 102 | 0.9 | 2.6 | 0.00 | 0.00 | 0.00 | 84 | 1014.2 |
| 20260906112004 | 75 | 104 | 1.7 | 2.6 | 0.00 | 0.00 | 0.00 | 84 | 1014.2 |
| 20260906111504 | 75 | 123 | 0.9 | 2.6 | 0.00 | 0.00 | 0.00 | 84 | 1014.3 |
| 20260906111004 | 75 | 93 | 0.9 | 2.6 | 0.00 | 0.00 | 0.00 | 84 | 1014.3 |
| 20260906110504 | 76 | 98 | 1.7 | 2.6 | 0.00 | 0.00 | 0.00 | 84 | 1014.3 |
| 20260906110004 | 76 | 100 | 0.9 | 2.6 | 0.00 | 0.00 | 0.00 | 84 | 1014.3 |
| 20260906105504 | 76 | 102 | 2.6 | 6.1 | 0.00 | 0.00 | 0.00 | 84 | 1014.1 |
| 20260906105004 | 76 | 88 | 0.9 | 2.6 | 0.00 | 0.00 | 0.00 | 84 | 1014.1 |
| 20260906104504 | 76 | 86 | 0.9 | 2.6 | 0.00 | 0.00 | 0.00 | 84 | 1014.1 |
| 20260906104005 | 76 | 91 | 2.6 | 5.2 | 0.00 | 0.00 | 0.00 | 85 | 1014.1 |
| 20260906103504 | 76 | 94 | 0.0 | 2.6 | 0.00 | 0.00 | 0.00 | 85 | 1014.1 |
| 20260906103004 | 76 | 101 | 0.9 | 2.6 | 0.00 | 0.00 | 0.00 | 85 | 1014.2 |
| 20260906102503 | 76 | 102 | 0.9 | 1.7 | 0.00 | 0.00 | 0.00 | 85 | 1014.2 |
| 20260906102004 | 76 | 84 | 0.9 | 2.6 | 0.00 | 0.00 | 0.00 | 85 | 1014.3 |
| 20260906101503 | 76 | 127 | 0.9 | 1.7 | 0.00 | 0.00 | 0.00 | 85 | 1014.5 |
| 20260906101004 | 76 | 124 | 0.9 | 2.6 | 0.00 | 0.00 | 0.00 | 85 | 1014.5 |
| 20260906100504 | 76 | 132 | 0.9 | 2.6 | 0.00 | 0.00 | 0.00 | 84 | 1014.5 |
| 20260906100004 | 76 | 104 | 0.0 | 1.7 | 0.00 | 0.00 | 0.00 | 84 | 1014.5 |
| 20260906095504 | 76 | 106 | 0.9 | 1.7 | 0.00 | 0.00 | 0.00 | 84 | 1014.3 |
| 20260906095004 | 76 | 98 | 1.7 | 7.0 | 0.00 | 0.00 | 0.00 | 84 | 1014.3 |
| 20260906094504 | 76 | 99 | 2.6 | 7.0 | 0.00 | 0.00 | 0.00 | 84 | 1014.2 |
| 20260906094004 | 76 | 108 | 1.7 | 2.6 | 0.00 | 0.00 | 0.00 | 84 | 1014.2 |
| 20260906093504 | 76 | 115 | 1.7 | 2.6 | 0.00 | 0.00 | 0.00 | 84 | 1014.2 |
| 20260906093004 | 76 | 91 | 0.9 | 4.3 | 0.00 | 0.00 | 0.00 | 84 | 1014.2 |
| 20260906092504 | 76 | 86 | 1.7 | 4.3 | 0.00 | 0.00 | 0.00 | 84 | 1014.2 |
| 20260906092004 | 76 | 96 | 0.9 | 2.6 | 0.00 | 0.00 | 0.00 | 84 | 1014.3 |
| 20260906091504 | 77 | 100 | 1.7 | 5.2 | 0.00 | 0.00 | 0.00 | 84 | 1014.3 |
| 20260906091004 | 77 | 87 | 2.6 | 6.1 | 0.00 | 0.00 | 0.00 | 84 | 1014.2 |
| 20260906090504 | 77 | 93 | 1.7 | 6.1 | 0.00 | 0.00 | 0.00 | 84 | 1014.1 |
| 20260906090004 | 77 | 81 | 1.7 | 6.1 | 0.00 | 0.00 | 0.00 | 84 | 1014.1 |
| 20260906085504 | 77 | 78 | 0.9 | 2.6 | 0.00 | 0.00 | 0.00 | 84 | 1014.2 |
| 20260906085004 | 77 | 93 | 1.7 | 2.6 | 0.00 | 0.00 | 0.00 | 85 | 1014.3 |
| 20260906084504 | 77 | 88 | 0.9 | 2.6 | 0.00 | 0.00 | 0.00 | 84 | 1014.3 |
| 20260906084003 | 77 | 95 | 0.9 | 2.6 | 0.00 | 0.00 | 0.00 | 84 | 1014.5 |
| 20260906083504 | 77 | 90 | 0.9 | 2.6 | 0.00 | 0.00 | 0.00 | 84 | 1014.5 |
| 20260906083004 | 77 | 118 | 0.0 | 1.7 | 0.00 | 0.00 | 0.00 | 84 | 1014.5 |
| 20260906082504 | 77 | 0 | 0.0 | 1.7 | 0.00 | 0.00 | 0.00 | 84 | 1014.5 |
| 20260906082004 | 77 | 96 | 0.0 | 2.6 | 0.00 | 0.00 | 0.00 | 84 | 1014.6 |
| 20260906081504 | 77 | 80 | 0.0 | 2.6 | 0.00 | 0.00 | 0.00 | 84 | 1014.6 |
| 20260906081003 | 77 | 80 | 0.9 | 1.7 | 0.00 | 0.00 | 0.00 | 84 | 1014.6 |
| 20260906080504 | 77 | 66 | 0.9 | 2.6 | 0.00 | 0.00 | 0.00 | 84 | 1014.6 |
| 20260906080004 | 77 | 80 | 0.9 | 1.7 | 0.00 | 0.00 | 0.00 | 84 | 1014.7 |
| 20260906075503 | 78 | 87 | 0.9 | 1.7 | 0.00 | 0.00 | 0.00 | 84 | 1014.6 |
| 20260906075004 | 78 | 109 | 0.9 | 2.6 | 0.00 | 0.00 | 0.00 | 84 | 1014.5 |
| 20260906074503 | 78 | 110 | 0.9 | 2.6 | 0.00 | 0.00 | 0.00 | 84 | 1014.4 |
| 20260906074004 | 77 | 63 | 0.9 | 2.6 | 0.00 | 0.00 | 0.00 | 84 | 1014.2 |
| 20260906073503 | 78 | 79 | 0.9 | 2.6 | 0.00 | 0.00 | 0.00 | 84 | 1014.3 |
| 20260906073004 | 77 | 83 | 0.9 | 2.6 | 0.00 | 0.00 | 0.00 | 84 | 1014.3 |
| 20260906072504 | 78 | 82 | 0.9 | 2.6 | 0.00 | 0.00 | 0.00 | 84 | 1014.2 |
| 20260906072004 | 78 | 92 | 0.0 | 2.6 | 0.00 | 0.00 | 0.00 | 84 | 1014.3 |
| 20260906071503 | 78 | 93 | 0.9 | 2.6 | 0.00 | 0.00 | 0.00 | 84 | 1014.3 |
| 20260906071004 | 78 | 104 | 0.9 | 2.6 | 0.00 | 0.00 | 0.00 | 83 | 1014.3 |
| 20260906070503 | 78 | 87 | 0.9 | 2.6 | 0.00 | 0.00 | 0.00 | 83 | 1014.4 |
| 20260906070004 | 78 | 91 | 1.7 | 4.3 | 0.00 | 0.00 | 0.00 | 83 | 1014.4 |
| 20260906065503 | 78 | 93 | 1.7 | 2.6 | 0.00 | 0.00 | 0.00 | 83 | 1014.3 |
| 20260906065004 | 78 | 111 | 1.7 | 5.2 | 0.00 | 0.00 | 0.00 | 83 | 1014.3 |
| 20260906064503 | 78 | 99 | 0.9 | 6.1 | 0.00 | 0.00 | 0.00 | 83 | 1014.3 |
| 20260906064004 | 78 | 57 | 0.9 | 2.6 | 0.00 | 0.00 | 0.00 | 83 | 1014.3 |
| 20260906063504 | 78 | 93 | 0.9 | 4.3 | 0.00 | 0.00 | 0.00 | 83 | 1014.3 |
| 20260906063003 | 78 | 91 | 0.9 | 5.2 | 0.00 | 0.00 | 0.00 | 83 | 1014.4 |
| 20260906062504 | 78 | 87 | 0.9 | 7.8 | 0.00 | 0.00 | 0.00 | 83 | 1014.4 |
| 20260906062004 | 78 | 84 | 1.7 | 4.3 | 0.00 | 0.00 | 0.00 | 83 | 1014.4 |
| 20260906061503 | 78 | 89 | 1.7 | 5.2 | 0.00 | 0.00 | 0.00 | 83 | 1014.5 |
| 20260906061004 | 78 | 102 | 0.9 | 6.1 | 0.00 | 0.00 | 0.00 | 83 | 1014.5 |
| 20260906060503 | 78 | 91 | 1.7 | 2.6 | 0.00 | 0.00 | 0.00 | 83 | 1014.5 |
| 20260906060003 | 78 | 88 | 0.9 | 4.3 | 0.00 | 0.00 | 0.00 | 83 | 1014.3 |
| 20260906055504 | 78 | 87 | 2.6 | 7.8 | 0.00 | 0.00 | 0.00 | 82 | 1014.3 |
| 20260906055004 | 79 | 78 | 2.6 | 7.0 | 0.00 | 0.00 | 0.00 | 82 | 1014.3 |
| 20260906054503 | 79 | 73 | 2.6 | 6.1 | 0.00 | 0.00 | 0.00 | 82 | 1014.4 |
| 20260906054004 | 79 | 85 | 1.7 | 4.3 | 0.00 | 0.00 | 0.00 | 82 | 1014.5 |
| 20260906053504 | 79 | 78 | 0.9 | 2.6 | 0.00 | 0.00 | 0.00 | 82 | 1014.5 |
| 20260906053004 | 79 | 68 | 1.7 | 2.6 | 0.00 | 0.00 | 0.00 | 82 | 1014.5 |
| 20260906052504 | 79 | 71 | 1.7 | 5.2 | 0.00 | 0.00 | 0.00 | 81 | 1014.5 |
| 20260906052004 | 79 | 74 | 1.7 | 6.1 | 0.00 | 0.00 | 0.00 | 81 | 1014.4 |
| 20260906051504 | 79 | 84 | 2.6 | 7.8 | 0.00 | 0.00 | 0.00 | 81 | 1014.4 |
| 20260906051003 | 79 | 79 | 1.7 | 5.2 | 0.00 | 0.00 | 0.00 | 81 | 1014.5 |
| 20260906050505 | 79 | 83 | 0.9 | 5.2 | 0.00 | 0.00 | 0.00 | 81 | 1014.4 |
| 20260906050004 | 79 | 81 | 1.7 | 6.1 | 0.00 | 0.00 | 0.00 | 81 | 1014.5 |
| 20260906045004 | 80 | 84 | 3.5 | 7.0 | 0.00 | 0.00 | 0.00 | 80 | 1014.6 |
| 20260906044504 | 80 | 90 | 1.7 | 5.2 | 0.00 | 0.00 | 0.00 | 80 | 1014.6 |
| 20260906044004 | 80 | 74 | 2.6 | 8.7 | 0.00 | 0.00 | 0.00 | 79 | 1014.5 |
| 20260906043504 | 80 | 75 | 3.5 | 10.4 | 0.00 | 0.00 | 0.00 | 79 | 1014.5 |
| 20260906043004 | 80 | 93 | 1.7 | 8.7 | 0.00 | 0.00 | 0.00 | 79 | 1014.5 |
| 20260906042504 | 80 | 86 | 0.9 | 5.2 | 0.00 | 0.00 | 0.00 | 78 | 1014.5 |
| 20260906042004 | 81 | 78 | 3.5 | 8.7 | 0.00 | 0.00 | 0.00 | 78 | 1014.5 |
| 20260906041504 | 81 | 86 | 2.6 | 7.0 | 0.00 | 0.00 | 0.00 | 77 | 1014.6 |
| 20260906041004 | 81 | 68 | 1.7 | 10.4 | 0.00 | 0.00 | 0.00 | 77 | 1014.6 |
| 20260906040504 | 81 | 75 | 4.3 | 8.7 | 0.00 | 0.00 | 0.00 | 77 | 1014.7 |
| 20260906040004 | 81 | 74 | 2.6 | 7.0 | 0.00 | 0.00 | 0.00 | 77 | 1014.7 |
| 20260906035504 | 81 | 48 | 2.6 | 6.1 | 0.00 | 0.00 | 0.00 | 76 | 1014.7 |
| 20260906035004 | 81 | 51 | 1.7 | 6.1 | 0.00 | 0.00 | 0.00 | 76 | 1014.6 |
| 20260906034505 | 81 | 63 | 2.6 | 8.7 | 0.00 | 0.00 | 0.00 | 76 | 1014.6 |
| 20260906034004 | 81 | 64 | 3.5 | 7.8 | 0.00 | 0.00 | 0.00 | 76 | 1014.5 |
| 20260906033504 | 81 | 74 | 4.3 | 8.7 | 0.00 | 0.00 | 0.00 | 75 | 1014.6 |
| 20260906033004 | 81 | 76 | 3.5 | 7.8 | 0.00 | 0.00 | 0.00 | 75 | 1014.6 |
| 20260906032504 | 81 | 71 | 2.6 | 8.7 | 0.00 | 0.00 | 0.00 | 75 | 1014.6 |
| 20260906032005 | 81 | 72 | 1.7 | 6.1 | 0.00 | 0.00 | 0.00 | 74 | 1014.7 |
| 20260906031504 | 82 | 75 | 2.6 | 6.1 | 0.00 | 0.00 | 0.00 | 74 | 1014.7 |
| 20260906031005 | 82 | 65 | 2.6 | 7.0 | 0.00 | 0.00 | 0.00 | 74 | 1014.7 |
| 20260906030504 | 82 | 67 | 2.6 | 7.8 | 0.00 | 0.00 | 0.00 | 73 | 1014.6 |
| 20260906030004 | 82 | 68 | 1.7 | 7.8 | 0.00 | 0.00 | 0.00 | 73 | 1014.7 |
| 20260906025504 | 82 | 65 | 2.6 | 7.0 | 0.00 | 0.00 | 0.00 | 73 | 1014.6 |
| 20260906025005 | 81 | 78 | 2.6 | 7.0 | 0.00 | 0.00 | 0.00 | 73 | 1014.5 |
| 20260906024504 | 81 | 59 | 1.7 | 5.2 | 0.00 | 0.00 | 0.00 | 74 | 1014.5 |
| 20260906024004 | 81 | 62 | 1.7 | 6.1 | 0.00 | 0.00 | 0.00 | 74 | 1014.6 |
| 20260906023504 | 81 | 49 | 0.9 | 2.6 | 0.00 | 0.00 | 0.00 | 73 | 1014.5 |
| 20260906023004 | 82 | 50 | 0.9 | 2.6 | 0.00 | 0.00 | 0.00 | 73 | 1014.4 |
| 20260906022504 | 82 | 60 | 0.9 | 4.3 | 0.00 | 0.00 | 0.00 | 74 | 1014.3 |
| 20260906022004 | 82 | 52 | 0.9 | 2.6 | 0.00 | 0.00 | 0.00 | 74 | 1014.1 |
| 20260906021504 | 82 | 53 | 0.9 | 4.3 | 0.00 | 0.00 | 0.00 | 74 | 1013.9 |
| 20260906021004 | 82 | 59 | 0.9 | 2.6 | 0.00 | 0.00 | 0.00 | 74 | 1013.6 |
| 20260906020504 | 83 | 57 | 1.7 | 5.2 | 0.00 | 0.00 | 0.00 | 74 | 1013.6 |
| 20260906020004 | 83 | 65 | 1.7 | 5.2 | 0.00 | 0.00 | 0.00 | 74 | 1013.5 |
| 20260906015503 | 83 | 64 | 1.7 | 7.0 | 0.00 | 0.00 | 0.00 | 74 | 1013.3 |
| 20260906015004 | 83 | 73 | 2.6 | 6.1 | 0.00 | 0.00 | 0.00 | 74 | 1013.3 |
| 20260906014504 | 83 | 51 | 1.7 | 7.8 | 0.00 | 0.00 | 0.00 | 73 | 1013.3 |
| 20260906014005 | 84 | 71 | 2.6 | 7.8 | 0.00 | 0.00 | 0.00 | 73 | 1013.2 |
| 20260906013504 | 84 | 57 | 2.6 | 7.0 | 0.00 | 0.00 | 0.00 | 73 | 1013.2 |
| 20260906013004 | 84 | 60 | 0.9 | 2.6 | 0.00 | 0.00 | 0.00 | 73 | 1013.1 |
| 20260906012504 | 84 | 69 | 1.7 | 4.3 | 0.00 | 0.00 | 0.00 | 72 | 1013.1 |
| 20260906012004 | 85 | 44 | 0.9 | 2.6 | 0.00 | 0.00 | 0.00 | 72 | 1013.1 |
| 20260906011504 | 85 | 65 | 0.9 | 4.3 | 0.00 | 0.00 | 0.00 | 71 | 1013.0 |
| 20260906011005 | 85 | 64 | 1.7 | 6.1 | 0.00 | 0.00 | 0.00 | 71 | 1013.0 |
| 20260906010504 | 85 | 89 | 1.7 | 7.0 | 0.00 | 0.00 | 0.00 | 70 | 1013.0 |
| 20260906010004 | 86 | 76 | 1.7 | 5.2 | 0.00 | 0.00 | 0.00 | 70 | 1012.9 |
| 20260906005504 | 86 | 85 | 2.6 | 7.0 | 0.00 | 0.00 | 0.00 | 69 | 1012.9 |
| 20260906005004 | 86 | 77 | 0.9 | 2.6 | 0.00 | 0.00 | 0.00 | 69 | 1013.0 |
| 20260906004504 | 86 | 99 | 0.9 | 2.6 | 0.00 | 0.00 | 0.00 | 68 | 1013.0 |
| 20260906004004 | 87 | 63 | 0.9 | 2.6 | 0.00 | 0.00 | 0.00 | 67 | 1013.0 |
| 20260906003504 | 87 | 82 | 0.9 | 2.6 | 0.00 | 0.00 | 0.00 | 67 | 1013.1 |
| 20260906003004 | 87 | 45 | 0.0 | 0.0 | 0.00 | 0.00 | 0.00 | 66 | 1013.0 |
| 20260906002504 | 87 | 108 | 0.0 | 2.6 | 0.00 | 0.00 | 0.00 | 65 | 1012.9 |
| 20260906002004 | 88 | 72 | 0.0 | 0.9 | 0.00 | 0.00 | 0.00 | 65 | 1012.9 |
| 20260906001504 | 88 | 92 | 0.9 | 2.6 | 0.00 | 0.00 | 0.00 | 65 | 1012.8 |
| 20260906001004 | 88 | 94 | 1.7 | 5.2 | 0.00 | 0.00 | 0.00 | 65 | 1012.8 |
| 20260906000504 | 88 | 120 | 3.5 | 7.0 | 0.00 | 0.00 | 0.00 | 65 | 1012.7 |
| 20260906000004 | 88 | 121 | 1.7 | 7.8 | 0.00 | 0.00 | 0.00 | 65 | 1012.6 |
| 20260905235504 | 88 | 130 | 1.7 | 7.0 | 0.00 | 0.00 | 0.00 | 65 | 1012.7 |
| 20260905235004 | 88 | 108 | 0.9 | 4.3 | 0.00 | 0.00 | 0.00 | 65 | 1012.6 |
| 20260905234504 | 89 | 102 | 2.6 | 7.0 | 0.00 | 0.00 | 0.00 | 65 | 1012.5 |
| 20260905234005 | 89 | 112 | 4.3 | 10.4 | 0.00 | 0.00 | 0.00 | 64 | 1012.4 |
| 20260905233504 | 89 | 123 | 5.2 | 8.7 | 0.00 | 0.00 | 0.00 | 64 | 1012.3 |
| 20260905233005 | 89 | 121 | 4.3 | 10.4 | 0.00 | 0.00 | 0.00 | 64 | 1012.4 |
| 20260905232504 | 89 | 113 | 4.3 | 10.4 | 0.00 | 0.00 | 0.00 | 64 | 1012.3 |
| 20260905232004 | 89 | 127 | 5.2 | 8.7 | 0.00 | 0.00 | 0.00 | 64 | 1012.4 |
| 20260905231504 | 89 | 132 | 0.9 | 8.7 | 0.00 | 0.00 | 0.00 | 64 | 1012.4 |
| 20260905231004 | 89 | 122 | 4.3 | 10.4 | 0.00 | 0.00 | 0.00 | 63 | 1012.4 |
| 20260905230504 | 89 | 97 | 2.6 | 10.4 | 0.00 | 0.00 | 0.00 | 63 | 1012.4 |
| 20260905230004 | 89 | 137 | 2.6 | 10.4 | 0.00 | 0.00 | 0.00 | 64 | 1012.4 |
| 20260905225505 | 89 | 144 | 5.2 | 11.3 | 0.00 | 0.00 | 0.00 | 62 | 1012.3 |
| 20260905225004 | 89 | 119 | 6.1 | 11.3 | 0.00 | 0.00 | 0.00 | 62 | 1012.3 |
| 20260905224504 | 90 | 120 | 4.3 | 10.4 | 0.00 | 0.00 | 0.00 | 61 | 1012.1 |
| 20260905224005 | 90 | 133 | 8.7 | 13.9 | 0.00 | 0.00 | 0.00 | 61 | 1012.0 |
| 20260905223504 | 90 | 134 | 6.1 | 12.2 | 0.00 | 0.00 | 0.00 | 60 | 1011.9 |
| 20260905223004 | 90 | 122 | 5.2 | 12.2 | 0.00 | 0.00 | 0.00 | 61 | 1011.9 |
| 20260905222504 | 90 | 134 | 10.4 | 15.6 | 0.00 | 0.00 | 0.00 | 61 | 1011.8 |
| 20260905222004 | 90 | 113 | 6.1 | 13.0 | 0.00 | 0.00 | 0.00 | 61 | 1011.9 |
| 20260905221504 | 90 | 114 | 7.0 | 12.2 | 0.00 | 0.00 | 0.00 | 61 | 1011.9 |
| 20260905221004 | 90 | 112 | 5.2 | 13.0 | 0.00 | 0.00 | 0.00 | 60 | 1011.8 |
| 20260905220505 | 90 | 114 | 5.2 | 10.4 | 0.00 | 0.00 | 0.00 | 60 | 1011.8 |
| 20260905220004 | 90 | 110 | 4.3 | 12.2 | 0.00 | 0.00 | 0.00 | 60 | 1011.8 |
| 20260905215505 | 90 | 130 | 7.0 | 12.2 | 0.00 | 0.00 | 0.00 | 60 | 1011.8 |
| 20260905215004 | 90 | 123 | 7.0 | 12.2 | 0.00 | 0.00 | 0.00 | 60 | 1011.7 |
| 20260905214505 | 90 | 124 | 5.2 | 13.0 | 0.00 | 0.00 | 0.00 | 60 | 1011.6 |
| 20260905214005 | 90 | 105 | 7.8 | 18.2 | 0.00 | 0.00 | 0.00 | 58 | 1011.7 |
| 20260905213504 | 90 | 120 | 3.5 | 10.4 | 0.00 | 0.00 | 0.00 | 60 | 1011.8 |
| 20260905213004 | 90 | 106 | 4.3 | 12.2 | 0.00 | 0.00 | 0.00 | 59 | 1011.9 |
| 20260905212504 | 90 | 110 | 4.3 | 12.2 | 0.00 | 0.00 | 0.00 | 59 | 1012.0 |
| 20260905212005 | 90 | 116 | 6.1 | 13.0 | 0.00 | 0.00 | 0.00 | 59 | 1012.1 |
| 20260905211504 | 89 | 115 | 3.5 | 10.4 | 0.00 | 0.00 | 0.00 | 58 | 1012.0 |
| 20260905211005 | 89 | 96 | 4.3 | 10.4 | 0.00 | 0.00 | 0.00 | 59 | 1011.9 |
| 20260905210504 | 89 | 111 | 5.2 | 12.2 | 0.00 | 0.00 | 0.00 | 58 | 1012.0 |
| 20260905210004 | 89 | 78 | 2.6 | 13.0 | 0.00 | 0.00 | 0.00 | 57 | 1012.0 |
| 20260905205504 | 89 | 99 | 4.3 | 17.4 | 0.00 | 0.00 | 0.00 | 57 | 1012.0 |
| 20260905205004 | 88 | 86 | 4.3 | 10.4 | 0.00 | 0.00 | 0.00 | 55 | 1012.0 |
| 20260905204504 | 88 | 98 | 4.3 | 10.4 | 0.00 | 0.00 | 0.00 | 54 | 1012.1 |
| 20260905204004 | 88 | 83 | 4.3 | 13.0 | 0.00 | 0.00 | 0.00 | 55 | 1012.2 |
| 20260905203505 | 88 | 89 | 5.2 | 13.0 | 0.00 | 0.00 | 0.00 | 54 | 1012.3 |
| 20260905203004 | 87 | 85 | 5.2 | 12.2 | 0.00 | 0.00 | 0.00 | 54 | 1012.4 |
| 20260905202504 | 87 | 96 | 6.1 | 14.8 | 0.00 | 0.00 | 0.00 | 54 | 1012.4 |
| 20260905202004 | 87 | 105 | 6.1 | 13.9 | 0.00 | 0.00 | 0.00 | 54 | 1012.4 |
| 20260905201504 | 87 | 106 | 5.2 | 15.6 | 0.00 | 0.00 | 0.00 | 54 | 1012.7 |
| 20260905201004 | 87 | 96 | 5.2 | 10.4 | 0.00 | 0.00 | 0.00 | 56 | 1012.8 |
| 20260905200504 | 86 | 88 | 4.3 | 13.0 | 0.00 | 0.00 | 0.00 | 56 | 1012.9 |
| 20260905200004 | 86 | 89 | 5.2 | 13.9 | 0.00 | 0.00 | 0.00 | 55 | 1012.8 |
| 20260905195504 | 85 | 83 | 4.3 | 11.3 | 0.00 | 0.00 | 0.00 | 54 | 1012.6 |
| 20260905195004 | 85 | 119 | 4.3 | 11.3 | 0.00 | 0.00 | 0.00 | 54 | 1012.7 |
| 20260905194504 | 85 | 110 | 4.3 | 11.3 | 0.00 | 0.00 | 0.00 | 56 | 1012.7 |
| 20260905194004 | 84 | 104 | 2.6 | 7.8 | 0.00 | 0.00 | 0.00 | 58 | 1012.8 |